STARLINK-30312, 57641

Orbit data source: Space-Track

STARLINK-30312, 57641 is a payload satellite owned by SpaceX/Seattle (US) in LEO that was launched on Thu, 17 Aug 2023 UTC via an FALCON 9 launch vehicle from the Air Force Eastern Test Range (AFETR). Payload-class satellites include a variety of spacecraft equipped with specific instruments for various scientific and technological missions. These include communications satellites like Starlink; space stations such as the ISS; scientific satellites like the Hubble; Earth observation satellites from companies like Planet Labs, Umbra, and HawkEye 360; GPS; miniature CubeSats for education and research; and military/defense satellites.

Loading next visibility...
Identifier
57641, 2023-122K
Orbit
LEO
Country
Flag of USUS
Related business
Manufacturer
SpaceX/Seattle
Mission
Operational Commercial Communications
Bus & Motor
STARLINK V2M, Unknown motor
Mass
730 kg wet, ~700 kg dry
Launch date (UTC)
2023-08-17 (3 years ago)
Launch vehicle
FALCON 9
Launch site
Air Force Eastern Test Range (AFETR)
Object type
Payload
Rocket body
Debris
Shape & HBR
Box + 2 Pan, 17.7 m
Radar Cross Section
33.884 m², Large (>1 m²)

Expand to show TLE details & history
Last TLE update: 2 days ago

TLE from 2 days ago
0 STARLINK-30312
1 57641U 23122K   26171.16237982  .00000669  00000-0  33834-4 0  9994
2 57641  43.0049 233.3802 0002137 264.6810  95.3798 15.27579354157884
Epoch: 2026-06-20T03:53Z
TLE epoch observation values (Epoch: 2026-06-20T03:53:49.616Z)
Latitude
-0.00001°
Longitude
-93.45751°
Altitude
482.965 km
Speed
7.626 km/s
True Right ascension
15h 33m 31s
True Declination
0° 00' 00"
Sunlit
Object was in full shadow at epoch
Visualization orbit readout
Latitude
Unknown
Longitude
Unknown
Altitude
Unknown
Speed
Unknown
Apparent Right ascension
Unknown
Apparent Declination
Unknown
Sunlit
N/A
Visualization observer readout
Local Sidereal Time
21:36:16
Azimuth
Unknown
Elevation
Unknown
Doppler factor
Unknown
Orbital elements
Apogee altitude
486.462 km
Perigee altitude
483.529 km
Semi-major axis
6,863.132 km
Eccentricity
0.00021
Inclination
43.0049°
RAAN
233.3802°
Arg. of periapsis
264.681°
True anomaly
95.40418°
Mean anomaly
95.3798°
Eccentric anomaly
95.39199°
Mean motion
3.81733 °/min
Orbital period
94.31 mins
BSTAR
0.000033834
Loading maneuver chart data...
Computing Atmospheric mass density...
Loading historical data...
Loading historical data...
Loading historical data...
Loading historical data...
Loading historical data...
Loading historical data...
Loading historical data...

Documentation

Showing up to 5 results
|